|
NORAD ID: 27390 Int'l Code: 2002-011B
Perigee: 260.5 km
Apogee: 21,111.5 km
Inclination: 26.8 °
Period: 369.5 minutes
Semi major axis: 17056 km
Launch date: March 8, 2002
Source: United States (US)
Note: This is a ROCKET BODY
Two Line Element Set (TLE):
1 27390U 02011B 13140.04530338 .00011020 00000-0 13870-2 0 6026
2 27390 026.7865 038.7377 6112179 315.2741 043.0231 03.89716661136923
Source:
NASA's NSSDC Master Catalog entry for ATLAS 2A CENTAUR R/B
|